Retour au catalogue

STARLINK-34081

ActifCommunicationsVLEO
NORAD 64044·PAYLOAD·🇺🇸 United States

Lancé May 16, 2025 depuis Vandenberg Space Force Base

Loading…

Prochains Passages (prochaines 24 heures)

TLE

FraisSource: CelesTrak SupGP

Époque: Sep 14, 2026, 22:14 UTC

1 64044C 25102Y   26257.92687500 -.00031561  00000+0 -10984-2 0  2575
2 64044  70.0012 355.7045 0003250 271.7984 266.4362 15.29580206    15

Suivez STARLINK-34081 en temps réel avec AllMySat

Download on the App Store